Home > Time Zones > World Clock > Weather > Egypt > Cairo > Past weeks

Flag for Egypt Weather past 2 weeks in Cairo, Egypt

Now
81 °F

Sunny.


Feels Like: 79 °F
Forecast: 65 / 101 °F
Wind: 18 mph from Northeast

Location: Cairo Airport


UV Index: 7 (High)

Visibility: 10 mi


Pressure: 30.01 "Hg

Humidity: 21%

Dew point: 37 °F

Location of CairoLocation

Historic Weather in Cairo

°F

Cairo temperature yesterday

Maximum temperature yesterday: 86 °F (at 2:30 PM)
Minimum temperature yesterday: 61 °F (at 3:30 AM)
Average temperature yesterday: 73 °F

Past Weeks' High & Low Weather Summary

 TemperatureHumidityPressure
High95 °F (Apr 18, 2:30 PM)94% (Apr 17, 2:30 AM)30.07 "Hg (Apr 17, 2:30 AM)
Low57 °F (Apr 21, 5:30 AM)10% (Apr 18, 2:30 PM)29.74 "Hg (Apr 15, 3:00 AM)
Average72 °F50%29.95 "Hg
* Reported Apr 8 9:00 AM — Apr 23 9:30 AM, Cairo, Weather by CustomWeather, © 2014

Note: Actual official high and low records may vary slightly from our data, if they occured in-between our weather recording intervals... More about our weather records

Advertising

Historic Weather Conditions — Data for Previous 24 hours

 ConditionsComfort  
Time TempWeatherWind HumidityBarometerVisibility
9:30 AM
Apr 23
81 °FSunny.17 mph21%30.04 "Hg10 mi
9:00 AM79 °FSunny.20 mph21%30.04 "Hg10 mi
8:30 AM77 °FSunny.17 mph24%30.04 "Hg10 mi
8:00 AM75 °FSunny.14 mph24%30.04 "Hg10 mi
7:30 AM73 °FSunny.16 mph25%30.04 "Hg10 mi
7:00 AM72 °FSunny.15 mph27%30.01 "Hg10 mi
6:30 AM70 °FSunny.15 mph31%30.01 "Hg10 mi
6:00 AM66 °FSunny.14 mph37%30.01 "Hg10 mi
5:30 AM64 °FScattered clouds.12 mph43%30.01 "HgN/A
5:00 AM66 °FClear.9 mph43%30.01 "Hg10 mi
4:30 AM66 °FClear.12 mph43%30.01 "Hg10 mi
4:00 AM66 °FClear.12 mph46%30.01 "Hg10 mi
3:30 AM66 °FClear.10 mph43%30.01 "Hg10 mi
3:00 AM66 °FClear.10 mph43%30.01 "Hg10 mi
2:30 AM68 °FClear.9 mph35%30.01 "Hg10 mi
2:00 AM68 °FClear.9 mph35%30.01 "Hg10 mi
1:30 AM68 °FClear.10 mph38%30.01 "Hg10 mi
1:00 AM68 °FClear.10 mph38%30.04 "Hg10 mi
12:30 AM70 °FClear.10 mph35%30.04 "Hg10 mi
12:00 AM70 °FClear.10 mph43%30.07 "Hg10 mi
11:30 PM
Apr 22
70 °FClear.14 mph46%30.07 "Hg10 mi
11:00 PM72 °FClear.14 mph50%30.07 "Hg10 mi
10:30 PM72 °FClear.12 mph50%30.07 "Hg10 mi
10:00 PM73 °FClear.12 mph47%30.07 "Hg10 mi
9:30 PM73 °FClear.14 mph47%30.04 "Hg10 mi
9:00 PM75 °FClear.14 mph44%30.04 "Hg10 mi
8:30 PM77 °FClear.14 mph39%30.04 "Hg10 mi
8:00 PM81 °FClear.13 mph32%30.01 "Hg10 mi
7:30 PM81 °FClear.14 mph34%29.98 "Hg10 mi
7:00 PM82 °FClear.12 mph30%29.98 "Hg10 mi
6:30 PM82 °FClear.12 mph26%29.98 "Hg10 mi
6:00 PM84 °FSunny.13 mph25%29.98 "Hg10 mi
5:30 PM86 °FSunny.14 mph24%29.98 "Hg10 mi
5:00 PM86 °FSunny.14 mph24%29.98 "Hg10 mi
4:30 PM86 °FSunny.13 mph22%29.98 "Hg10 mi
4:00 PM86 °FSunny.13 mph22%29.98 "Hg10 mi
3:30 PM86 °FSunny.13 mph19%29.98 "Hg10 mi
3:00 PM86 °FSunny.13 mph19%29.98 "Hg10 mi
2:30 PM86 °FSunny.14 mph20%29.98 "Hg10 mi
2:00 PM84 °FSunny.14 mph22%30.01 "Hg10 mi
1:30 PM84 °FSunny.13 mph20%30.01 "Hg10 mi
12:00 PM81 °FSunny.13 mph21%30.04 "Hg10 mi
11:30 AM81 °FSunny.13 mph21%30.04 "Hg10 mi
11:00 AM79 °FSunny.10 mph28%30.07 "Hg10 mi
10:30 AM75 °FSunny.9 mph36%30.07 "Hg10 mi
10:00 AM75 °FSunny.12 mph36%30.07 "Hg10 mi
Weather by CustomWeather, © 2014

See weather overview